Location: Newport
(44.6370°N, 124.0520°W)
Time: 11:39:07
(UTC-07:00)

Envisat - Pass Details

Date: 10 October 2017
Orbit: 764 x 766 km, 98.2° (Epoch: 18 October)

Event Time Altitude Azimuth Distance (km) Brightness Sun altitude
Exits shadow 19:47:54 18° 90° (E) 1,793 4.3 -12.9°
Maximum altitude 19:49:38 22° 63° (ENE) 1,634 4.2 -13.2°
Drops below altitude 10° 19:53:28 10° 14° (NNE) 2,312 5.4 -13.9°
Sets 19:56:13 0° 359° (N) 3,242 6.3 -14.4°
